When you browse on this site, cookies collect data to enhance your experience and personalize the content and advertising you see.
Visit our Privacy Policy to learn more. By continuing to use the site, you agree to this use of cookies and data.
  • In Hungary
  • List of Countries
  • For 7 days
  • Water Temperature
  • Satellite Maps
  • Weather Map
  • News
  • Weather Widgets
  • user-avatar
    Login

    Hourly Weather Rabka-Zdrój

    Today, 18 November, Sunday

    Time Temperature Precipitation Wind Pressure Humidity
    00:00 -1°C° 0 mm 1 mps 716 mmHg 71%
    01:00 -1°C° 0 mm 1 mps 716 mmHg 71%
    02:00 -1°C° 0 mm 1 mps 716 mmHg 72%
    03:00 -1°C° 0 mm 1 mps 715 mmHg 73%
    04:00 -1°C° 0 mm 1 mps 715 mmHg 74%
    05:00 -1°C° 0 mm 1 mps 714 mmHg 75%
    06:00 -2°C° 0 mm 0 mps 714 mmHg 76%
    07:00 -2°C° 0 mm 0 mps 713 mmHg 77%
    08:00 -1°C° 0 mm 0 mps 714 mmHg 71%
    09:00 +2°C° 0 mm 1 mps 714 mmHg 65%
    10:00 +3°C° 0 mm 1 mps 714 mmHg 59%
    11:00 +4°C° 0 mm 1 mps 713 mmHg 58%
    12:00 +4°C° 0 mm 1 mps 713 mmHg 57%
    13:00 +5°C° 0 mm 1 mps 712 mmHg 56%
    14:00 +4°C° 0.1 mm 1 mps 711 mmHg 64%
    15:00 +1°C° 0.1 mm 2 mps 711 mmHg 71%
    16:00 -1°C° 0.1 mm 2 mps 710 mmHg 78%
    17:00 -1°C° 0.2 mm 2 mps 710 mmHg 79%
    18:00 -1°C° 0.2 mm 2 mps 709 mmHg 80%
    19:00 0°C° 0.2 mm 1 mps 709 mmHg 81%
    20:00 0°C° 0 mm 1 mps 709 mmHg 80%
    21:00 0°C° 0 mm 1 mps 709 mmHg 79%
    22:00 -2°C° 0 mm 2 mps 708 mmHg 78%
    23:00 0°C° 0 mm 1 mps 708 mmHg 76%

    Tomorrow, 19 November, Monday

    Time Temperature Precipitation Wind Pressure Humidity
    00:00 -1°C° 0 mm 1 mps 708 mmHg 74%
    01:00 -1°C° 0 mm 1 mps 708 mmHg 73%
    02:00 -1°C° 0 mm 1 mps 707 mmHg 73%
    03:00 -1°C° 0 mm 1 mps 707 mmHg 73%
    04:00 -2°C° 0 mm 1 mps 707 mmHg 73%
    05:00 -2°C° 0 mm 1 mps 707 mmHg 73%
    06:00 -2°C° 0 mm 1 mps 706 mmHg 73%
    07:00 -2°C° 0 mm 1 mps 706 mmHg 73%
    08:00 -1°C° 0 mm 1 mps 707 mmHg 69%
    09:00 0°C° 0 mm 1 mps 707 mmHg 65%
    10:00 +1°C° 0 mm 1 mps 707 mmHg 60%
    11:00 +2°C° 0 mm 1 mps 707 mmHg 60%
    12:00 +2°C° 0 mm 1 mps 707 mmHg 60%
    13:00 +3°C° 0 mm 1 mps 707 mmHg 60%
    14:00 +2°C° 0 mm 1 mps 707 mmHg 65%
    15:00 +2°C° 0 mm 1 mps 707 mmHg 70%
    16:00 +1°C° 0 mm 1 mps 707 mmHg 75%
    17:00 0°C° 0 mm 1 mps 707 mmHg 77%
    18:00 0°C° 0 mm 1 mps 707 mmHg 79%
    19:00 0°C° 0 mm 1 mps 707 mmHg 82%
    20:00 0°C° 0 mm 1 mps 708 mmHg 82%
    21:00 -1°C° 0 mm 1 mps 708 mmHg 83%
    22:00 -1°C° 0 mm 1 mps 708 mmHg 83%
    23:00 -1°C° 0 mm 1 mps 708 mmHg 83%

    Day after tomorrow, 20 November, Tuesday

    Time Temperature Precipitation Wind Pressure Humidity
    00:00 -1°C° 0 mm 1 mps 708 mmHg 84%
    01:00 -1°C° 0 mm 1 mps 708 mmHg 84%
    02:00 -1°C° 0 mm 1 mps 707 mmHg 84%
    03:00 -1°C° 0 mm 1 mps 707 mmHg 85%
    04:00 -1°C° 0 mm 1 mps 706 mmHg 85%
    05:00 -1°C° 0 mm 1 mps 706 mmHg 86%
    06:00 -1°C° 0 mm 1 mps 706 mmHg 86%
    07:00 -1°C° 0 mm 1 mps 707 mmHg 87%
    08:00 -2°C° 0 mm 2 mps 706 mmHg 82%
    09:00 -1°C° 0 mm 2 mps 706 mmHg 78%
    10:00 +2°C° 0 mm 2 mps 706 mmHg 73%
    11:00 +2°C° 0.2 mm 2 mps 706 mmHg 74%
    12:00 +2°C° 0.2 mm 2 mps 705 mmHg 74%
    13:00 +3°C° 0.2 mm 2 mps 705 mmHg 75%
    14:00 +2°C° 0.4 mm 2 mps 704 mmHg 78%
    15:00 +2°C° 0.4 mm 2 mps 704 mmHg 81%
    16:00 +2°C° 0.4 mm 2 mps 704 mmHg 84%
    17:00 +2°C° 0.4 mm 2 mps 704 mmHg 84%
    18:00 +2°C° 0.4 mm 2 mps 703 mmHg 85%
    19:00 +2°C° 0.4 mm 2 mps 703 mmHg 85%
    20:00 +2°C° 0.1 mm 2 mps 703 mmHg 86%
    21:00 +2°C° 0.1 mm 2 mps 703 mmHg 86%
    22:00 +3°C° 0.1 mm 1 mps 703 mmHg 87%
    23:00 +3°C° 0.1 mm 1 mps 703 mmHg 87%

    21 November, Wednesday

    Time Temperature Precipitation Wind Pressure Humidity
    00:00 +3°C° 0.1 mm 1 mps 703 mmHg 88%
    01:00 +3°C° 0.1 mm 1 mps 703 mmHg 88%
    02:00 +3°C° 0.2 mm 1 mps 703 mmHg 89%
    03:00 +3°C° 0.2 mm 1 mps 703 mmHg 90%
    04:00 +3°C° 0.2 mm 1 mps 703 mmHg 90%
    05:00 +3°C° 0.2 mm 1 mps 703 mmHg 91%
    06:00 +3°C° 0.2 mm 1 mps 704 mmHg 92%
    07:00 +3°C° 0.2 mm 1 mps 704 mmHg 93%
    08:00 +4°C° 0.1 mm 1 mps 704 mmHg 92%
    09:00 +4°C° 0.1 mm 1 mps 705 mmHg 91%
    10:00 +5°C° 0.1 mm 1 mps 705 mmHg 91%
    11:00 +5°C° 0.1 mm 1 mps 705 mmHg 91%
    12:00 +5°C° 0.1 mm 1 mps 705 mmHg 91%
    13:00 +5°C° 0.1 mm 1 mps 705 mmHg 91%
    14:00 +5°C° 0 mm 1 mps 706 mmHg 93%
    15:00 +4°C° 0 mm 1 mps 706 mmHg 94%
    16:00 +4°C° 0 mm 1 mps 706 mmHg 95%
    17:00 +4°C° 0 mm 1 mps 706 mmHg 95%
    18:00 +4°C° 0 mm 1 mps 706 mmHg 95%
    19:00 +4°C° 0 mm 1 mps 706 mmHg 95%
    20:00 +4°C° 0 mm 1 mps 707 mmHg 95%
    21:00 +4°C° 0 mm 1 mps 707 mmHg 95%
    22:00 +4°C° 0 mm 1 mps 707 mmHg 95%
    23:00 +4°C° 0 mm 1 mps 707 mmHg 95%

    22 November, Thursday

    Time Temperature Precipitation Wind Pressure Humidity
    00:00 +4°C° 0 mm 1 mps 707 mmHg 96%
    01:00 +4°C° 0 mm 1 mps 707 mmHg 96%
    02:00 +4°C° 0 mm 1 mps 707 mmHg 96%
    03:00 +4°C° 0 mm 1 mps 707 mmHg 96%
    04:00 +3°C° 0 mm 1 mps 707 mmHg 96%
    05:00 +4°C° 0 mm 1 mps 708 mmHg 96%
    06:00 +4°C° 0 mm 1 mps 708 mmHg 95%
    07:00 +4°C° 0 mm 1 mps 708 mmHg 95%
    08:00 +4°C° 0 mm 1 mps 708 mmHg 93%
    09:00 +5°C° 0 mm 1 mps 709 mmHg 90%
    10:00 +6°C° 0 mm 1 mps 709 mmHg 88%
    11:00 +6°C° 0 mm 1 mps 709 mmHg 87%
    12:00 +7°C° 0 mm 1 mps 709 mmHg 86%
    13:00 +7°C° 0 mm 1 mps 710 mmHg 85%
    14:00 +7°C° 0 mm 1 mps 710 mmHg 88%
    15:00 +6°C° 0 mm 1 mps 710 mmHg 91%
    16:00 +5°C° 0 mm 1 mps 710 mmHg 94%
    17:00 +5°C° 0 mm 1 mps 710 mmHg 94%
    18:00 +5°C° 0 mm 1 mps 710 mmHg 95%
    19:00 +5°C° 0 mm 1 mps 710 mmHg 95%
    20:00 +5°C° 0 mm 1 mps 711 mmHg 95%
    21:00 +5°C° 0 mm 1 mps 711 mmHg 95%
    22:00 +5°C° 0 mm 1 mps 711 mmHg 95%
    23:00 +5°C° 0 mm 1 mps 711 mmHg 95%

    23 November, Friday

    Time Temperature Precipitation Wind Pressure Humidity
    00:00 +4°C° 0 mm 1 mps 711 mmHg 95%
    01:00 +4°C° 0 mm 1 mps 711 mmHg 95%
    02:00 +4°C° 0 mm 1 mps 711 mmHg 95%
    03:00 +4°C° 0 mm 1 mps 711 mmHg 95%
    04:00 +4°C° 0 mm 1 mps 711 mmHg 95%
    05:00 +4°C° 0 mm 1 mps 711 mmHg 95%
    06:00 +5°C° 0 mm 1 mps 711 mmHg 95%
    07:00 +5°C° 0 mm 1 mps 712 mmHg 95%
    08:00 +5°C° 0.1 mm 1 mps 712 mmHg 94%
    09:00 +6°C° 0.1 mm 1 mps 712 mmHg 93%
    10:00 +6°C° 0.1 mm 1 mps 712 mmHg 92%
    11:00 +7°C° 0 mm 1 mps 712 mmHg 89%
    12:00 +7°C° 0 mm 1 mps 712 mmHg 86%
    13:00 +7°C° 0 mm 2 mps 711 mmHg 84%
    14:00 +7°C° 0 mm 1 mps 711 mmHg 87%
    15:00 +6°C° 0 mm 1 mps 711 mmHg 90%
    16:00 +6°C° 0 mm 1 mps 710 mmHg 93%
    17:00 +5°C° 0 mm 1 mps 710 mmHg 93%
    18:00 +5°C° 0 mm 1 mps 710 mmHg 94%
    19:00 +5°C° 0 mm 1 mps 710 mmHg 94%
    20:00 +5°C° 0 mm 1 mps 710 mmHg 94%
    21:00 +4°C° 0 mm 2 mps 710 mmHg 94%
    22:00 +4°C° 0 mm 2 mps 710 mmHg 94%
    23:00 +4°C° 0 mm 2 mps 709 mmHg 95%
    Show more